Погода в Александро-Невском

Россия / Рязанская область     53°28′25″N   40°12′35″E
темп.,
°C
ветер,
м/с
пор.,
м/с
влажн.,
%
обл.,
%
осадки,
мм/ч
давл.,
гПа
погр.,
м
23 апреля, пт
пт2300:00+7ю48795 0.0 1020133
03:00+6ю488251 0.0 1020121
06:00+7ю488385 0.0 1020133
09:00+12ю466648 0.0 1019387
12:00+16ю574694 1.1 10182381
15:00+15ю575299 1.1 10171779
18:00+14ю475996 0.1 1015252
21:00+10ююв4117563 0.1 1014212
24 апреля, сб
сб2400:00+9ююв5128217 0.1 1012247
03:00+7ююв49917 0.1 1010191
06:00+7ююв51192100 0.2 1009400
09:00+8зюз5787100 0.8 1008724
12:00+3зсз61097100 2.9 1009548
15:00+6з4779100 5.3 1008924
18:00+7з6971100 1.0 10081094
21:00+4зюз410805 1.4 1009286
25 апреля, вс
вс2500:00+2зюз6118740 0.1 1008494
03:00+2з81497100 2.7 1009890
06:00+1з81597100 2.4 1011720
09:00+4з7118253 2.6 1013867
12:00+7зюз8105515 0.1 10141900
15:00+9з81245100 0.2 10142771
18:00+8зюз695694 0.3 10141106
21:00+5ююз5136999 0.3 1014378
26 апреля, пн
пн2600:00+5юз7128630 0.8 1013823
03:00+2зюз379453 0.8 1015263
06:00+2юз36875 0.0 1015200
09:00+5зюз346713 0.0 1014803
12:00+7зюз4449100 0.1 10141835
15:00+8юз3547100 0.1 10131744
18:00+8юз3452100 0.1 1012818
21:00+5юз236698 0.1 101156
27 апреля, вт
вт2700:00+3з347691 0.0 101182
03:00+2з228094 0.0 101122
06:00+2юз3683100 0.0 1011163
09:00+6юз576691 0.8 1010877
12:00+7з786185 1.5 10101509
15:00+8з584899 2.3 10102302
18:00+7з57567 0.4 10101244
21:00+4зюз377757 0.6 1012164